Back to catalog

STARLINK-38304

AliveCommunicationsSSO
NORAD 100374·PAYLOAD·🇺🇸 United States

Launched Aug 19, 2026 from Vandenberg Space Force Base

Loading…

Next Passes (next 24 hours)

TLE

FreshSource: Space-Track

Epoch: Sep 14, 2026, 03:18 UTC

1 A0374U 26190D   26257.13750629  .00174389  00000-0  11471-2 0  9995
2 A0374  97.2832 111.1741 0002698  69.3466 290.8088 15.75172615  5372

Track STARLINK-38304 in real time with AllMySat

Download on the App Store